Data No,UTC Date,UTC Time,Latitude,Longitude,Course(deg),Temp(degC),Sal(psu)
519,2022/12/15,8:38,42-36.79N,141-36.98E,207,7.187,
520,2022/12/15,8:39,42-36.57N,141-36.81E,208,7.31,
521,2022/12/15,8:40,42-36.31N,141-36.71E,187,7.898,
522,2022/12/15,8:41,42-36.03N,141-36.74E,174,8.344,
523,2022/12/15,8:42,42-35.76N,141-36.82E,166,8.575,
524,2022/12/15,8:43,42-35.46N,141-36.90E,169,8.72,
525,2022/12/15,8:44,42-35.16N,141-36.98E,168,8.746,
526,2022/12/15,8:45,42-34.87N,141-37.06E,168,8.691,
527,2022/12/15,8:46,42-34.57N,141-37.16E,165,8.541,
528,2022/12/15,8:47,42-34.27N,141-37.29E,160,8.536,
529,2022/12/15,8:48,42-34.00N,141-37.50E,139,8.56,
530,2022/12/15,8:49,42-33.82N,141-37.85E,122,8.662,
531,2022/12/15,8:50,42-33.65N,141-38.24E,121,8.73,
532,2022/12/15,8:51,42-33.47N,141-38.63E,121,8.67,
533,2022/12/15,8:52,42-33.30N,141-39.00E,121,8.634,
534,2022/12/15,8:53,42-33.12N,141-39.41E,120,8.648,
535,2022/12/15,8:54,42-32.95N,141-39.80E,121,8.662,
536,2022/12/15,8:55,42-32.76N,141-40.21E,121,8.715,
537,2022/12/15,8:56,42-32.58N,141-40.60E,121,8.781,
538,2022/12/15,8:57,42-32.40N,141-41.01E,120,8.842,
539,2022/12/15,8:58,42-32.22N,141-41.42E,120,8.887,
540,2022/12/15,8:59,42-32.03N,141-41.82E,122,8.939,
541,2022/12/15,9:00,42-31.82N,141-42.23E,125,8.994,
542,2022/12/15,9:01,42-31.61N,141-42.60E,126,9.022,
543,2022/12/15,9:02,42-31.40N,141-43.00E,125,9.007,
544,2022/12/15,9:03,42-31.18N,141-43.40E,126,8.984,
545,2022/12/15,9:04,42-30.96N,141-43.79E,126,9.017,
546,2022/12/15,9:05,42-30.75N,141-44.19E,126,9.053,
547,2022/12/15,9:06,42-30.53N,141-44.61E,126,9.101,
548,2022/12/15,9:07,42-30.31N,141-44.98E,126,9.144,
549,2022/12/15,9:08,42-30.09N,141-45.39E,126,9.143,
550,2022/12/15,9:09,42-29.85N,141-45.79E,127,9.104,
551,2022/12/15,9:10,42-29.63N,141-46.18E,127,9.089,
552,2022/12/15,9:11,42-29.41N,141-46.58E,126,9.101,
553,2022/12/15,9:12,42-29.18N,141-46.97E,127,9.14,
554,2022/12/15,9:13,42-28.95N,141-47.38E,127,9.149,
555,2022/12/15,9:14,42-28.72N,141-47.78E,127,9.135,
556,2022/12/15,9:15,42-28.49N,141-48.19E,127,9.1,
557,2022/12/15,9:16,42-28.27N,141-48.58E,127,9.065,
558,2022/12/15,9:17,42-28.04N,141-48.98E,128,9.03,
559,2022/12/15,9:18,42-27.80N,141-49.39E,128,8.989,
560,2022/12/15,9:19,42-27.57N,141-49.78E,128,8.955,
561,2022/12/15,9:20,42-27.34N,141-50.19E,126,8.922,
562,2022/12/15,9:21,42-27.11N,141-50.59E,128,8.91,
563,2022/12/15,9:22,42-26.87N,141-51.00E,127,8.916,
564,2022/12/15,9:23,42-26.64N,141-51.40E,128,8.92,
565,2022/12/15,9:24,42-26.41N,141-51.81E,127,8.956,
566,2022/12/15,9:25,42-26.18N,141-52.21E,127,8.987,
567,2022/12/15,9:26,42-25.95N,141-52.60E,127,9.033,
568,2022/12/15,9:27,42-25.73N,141-52.99E,127,9.034,
569,2022/12/15,9:28,42-25.50N,141-53.40E,126,9.021,
570,2022/12/15,9:29,42-25.28N,141-53.79E,128,9.003,
571,2022/12/15,9:30,42-25.05N,141-54.19E,126,9.032,
572,2022/12/15,9:31,42-24.84N,141-54.58E,127,9.014,
573,2022/12/15,9:32,42-24.61N,141-54.99E,126,9.069,
574,2022/12/15,9:33,42-24.38N,141-55.39E,126,9.113,
575,2022/12/15,9:34,42-24.16N,141-55.78E,127,9.12,
576,2022/12/15,9:35,42-23.93N,141-56.19E,126,9.127,
577,2022/12/15,9:36,42-23.71N,141-56.59E,126,9.127,
578,2022/12/15,9:37,42-23.48N,141-56.99E,128,9.125,
579,2022/12/15,9:38,42-23.25N,141-57.40E,125,9.112,
580,2022/12/15,9:39,42-23.03N,141-57.80E,127,9.078,
581,2022/12/15,9:40,42-22.81N,141-58.20E,127,9.05,
582,2022/12/15,9:41,42-22.59N,141-58.59E,127,9.02,
583,2022/12/15,9:42,42-22.36N,141-58.99E,126,8.976,
584,2022/12/15,9:43,42-22.13N,141-59.40E,127,8.946,
585,2022/12/15,9:44,42-21.90N,141-59.79E,127,8.921,
586,2022/12/15,9:45,42-21.67N,142-00.21E,127,8.907,
587,2022/12/15,9:46,42-21.44N,142-00.62E,126,8.877,
588,2022/12/15,9:47,42-21.21N,142-01.03E,125,8.802,
589,2022/12/15,9:48,42-20.98N,142-01.43E,128,8.668,
590,2022/12/15,9:49,42-20.76N,142-01.84E,125,8.673,
591,2022/12/15,9:50,42-20.53N,142-02.26E,128,8.688,
592,2022/12/15,9:51,42-20.27N,142-02.71E,127,8.728,
593,2022/12/15,9:52,42-20.05N,142-03.12E,126,8.845,
594,2022/12/15,9:53,42-19.82N,142-03.54E,126,8.884,
595,2022/12/15,9:54,42-19.63N,142-03.89E,124,8.931,
596,2022/12/15,9:55,42-19.39N,142-04.38E,124,9.014,
597,2022/12/15,9:56,42-19.18N,142-04.80E,125,9.052,
598,2022/12/15,9:57,42-18.98N,142-05.21E,122,9.067,
599,2022/12/15,9:58,42-18.77N,142-05.65E,123,9.069,
600,2022/12/15,9:59,42-18.58N,142-06.05E,120,9.066,
601,2022/12/15,10:00,42-18.39N,142-06.46E,124,9.054,
602,2022/12/15,10:01,42-18.18N,142-06.88E,125,9.023,
603,2022/12/15,10:02,42-17.96N,142-07.36E,120,8.984,
604,2022/12/15,10:03,42-17.75N,142-07.80E,121,8.916,
605,2022/12/15,10:04,42-17.57N,142-08.23E,120,8.911,
606,2022/12/15,10:05,42-17.37N,142-08.67E,119,8.989,
607,2022/12/15,10:06,42-17.17N,142-09.11E,120,9.065,
608,2022/12/15,10:07,42-16.98N,142-09.59E,119,9.07,
609,2022/12/15,10:08,42-16.80N,142-10.00E,120,9.041,
610,2022/12/15,10:09,42-16.60N,142-10.45E,120,8.988,
611,2022/12/15,10:10,42-16.43N,142-10.88E,118,8.95,
612,2022/12/15,10:11,42-16.26N,142-11.27E,121,8.945,
613,2022/12/15,10:12,42-16.09N,142-11.71E,116,8.935,
614,2022/12/15,10:13,42-15.88N,142-12.21E,120,8.931,
615,2022/12/15,10:14,42-15.69N,142-12.67E,117,8.902,
616,2022/12/15,10:15,42-15.50N,142-13.08E,120,8.874,
617,2022/12/15,10:16,42-15.30N,142-13.51E,121,8.86,
618,2022/12/15,10:17,42-15.13N,142-13.97E,115,8.872,
619,2022/12/15,10:18,42-14.95N,142-14.43E,117,8.872,
620,2022/12/15,10:19,42-14.76N,142-14.85E,121,8.869,
621,2022/12/15,10:20,42-14.59N,142-15.21E,119,8.893,
622,2022/12/15,10:21,42-14.42N,142-15.66E,116,8.937,
623,2022/12/15,10:22,42-14.22N,142-16.11E,122,8.926,
624,2022/12/15,10:23,42-14.01N,142-16.60E,115,8.94,
625,2022/12/15,10:24,42-13.85N,142-17.00E,120,8.949,
626,2022/12/15,10:25,42-13.66N,142-17.41E,122,8.944,
627,2022/12/15,10:26,42-13.47N,142-17.86E,117,8.957,
628,2022/12/15,10:27,42-13.30N,142-18.31E,118,8.946,
629,2022/12/15,10:28,42-13.09N,142-18.75E,124,8.954,
630,2022/12/15,10:29,42-12.92N,142-19.18E,115,8.96,
631,2022/12/15,10:30,42-12.73N,142-19.61E,122,8.94,
632,2022/12/15,10:31,42-12.53N,142-20.04E,122,8.922,
633,2022/12/15,10:32,42-12.36N,142-20.48E,117,8.915,
634,2022/12/15,10:33,42-12.16N,142-20.94E,121,8.902,
635,2022/12/15,10:34,42-11.95N,142-21.38E,121,8.901,
636,2022/12/15,10:35,42-11.76N,142-21.83E,116,8.893,
637,2022/12/15,10:36,42-11.58N,142-22.26E,120,8.875,
638,2022/12/15,10:37,42-11.38N,142-22.68E,122,8.862,
639,2022/12/15,10:38,42-11.16N,142-23.11E,126,8.883,
640,2022/12/15,10:39,42-10.94N,142-23.51E,127,8.892,
641,2022/12/15,10:40,42-10.70N,142-23.90E,129,8.906,
642,2022/12/15,10:41,42-10.45N,142-24.30E,131,8.905,
643,2022/12/15,10:42,42-10.22N,142-24.66E,133,8.908,
644,2022/12/15,10:43,42-09.96N,142-25.03E,131,8.922,
645,2022/12/15,10:44,42-09.73N,142-25.42E,128,8.911,
646,2022/12/15,10:45,42-09.49N,142-25.79E,132,8.91,
647,2022/12/15,10:46,42-09.23N,142-26.17E,131,8.915,
648,2022/12/15,10:47,42-09.01N,142-26.55E,126,8.942,
649,2022/12/15,10:48,42-08.78N,142-26.99E,124,8.99,
650,2022/12/15,10:49,42-08.59N,142-27.39E,121,9.047,
651,2022/12/15,10:50,42-08.38N,142-27.82E,123,9.092,
652,2022/12/15,10:51,42-08.19N,142-28.25E,120,9.101,
653,2022/12/15,10:52,42-08.00N,142-28.66E,120,9.09,
654,2022/12/15,10:53,42-07.82N,142-29.11E,118,9.059,
655,2022/12/15,10:54,42-07.62N,142-29.55E,123,9.046,
656,2022/12/15,10:55,42-07.43N,142-29.95E,121,9.021,
657,2022/12/15,10:56,42-07.25N,142-30.39E,116,9.007,
658,2022/12/15,10:57,42-07.07N,142-30.83E,121,9.094,
659,2022/12/15,10:58,42-06.88N,142-31.25E,120,9.189,
660,2022/12/15,10:59,42-06.69N,142-31.67E,119,9.248,
661,2022/12/15,11:00,42-06.52N,142-32.12E,118,9.282,
662,2022/12/15,11:01,42-06.32N,142-32.56E,121,9.308,
663,2022/12/15,11:02,42-06.15N,142-33.00E,116,9.321,
664,2022/12/15,11:03,42-05.96N,142-33.43E,124,9.361,
665,2022/12/15,11:04,42-05.76N,142-33.84E,120,9.386,
666,2022/12/15,11:05,42-05.59N,142-34.29E,119,9.402,
667,2022/12/15,11:06,42-05.39N,142-34.73E,120,9.424,
668,2022/12/15,11:07,42-05.21N,142-35.18E,120,9.45,
669,2022/12/15,11:08,42-05.02N,142-35.62E,119,9.446,
670,2022/12/15,11:09,42-04.84N,142-36.03E,123,9.486,
671,2022/12/15,11:10,42-04.65N,142-36.45E,119,9.501,
672,2022/12/15,11:11,42-04.48N,142-36.91E,118,9.489,
673,2022/12/15,11:12,42-04.29N,142-37.31E,122,9.476,
674,2022/12/15,11:13,42-04.09N,142-37.74E,122,9.466,
675,2022/12/15,11:14,42-03.88N,142-38.20E,119,9.451,
676,2022/12/15,11:15,42-03.72N,142-38.61E,118,9.427,
677,2022/12/15,11:16,42-03.53N,142-39.06E,120,9.387,
678,2022/12/15,11:17,42-03.34N,142-39.52E,118,9.355,
679,2022/12/15,11:18,42-03.15N,142-39.92E,124,9.426,
680,2022/12/15,11:19,42-02.94N,142-40.34E,122,9.502,
681,2022/12/15,11:20,42-02.76N,142-40.79E,118,9.509,
682,2022/12/15,11:21,42-02.59N,142-41.23E,116,9.498,
683,2022/12/15,11:22,42-02.40N,142-41.66E,120,9.44,
684,2022/12/15,11:23,42-02.20N,142-42.09E,122,9.49,
685,2022/12/15,11:24,42-02.02N,142-42.54E,118,9.523,
686,2022/12/15,11:25,42-01.84N,142-42.96E,120,9.453,
687,2022/12/15,11:26,42-01.63N,142-43.39E,121,9.396,
688,2022/12/15,11:27,42-01.46N,142-43.82E,118,9.373,
689,2022/12/15,11:28,42-01.27N,142-44.26E,121,9.347,
690,2022/12/15,11:29,42-01.06N,142-44.72E,118,9.317,
691,2022/12/15,11:30,42-00.88N,142-45.13E,119,9.283,
692,2022/12/15,11:31,42-00.70N,142-45.57E,120,9.24,
693,2022/12/15,11:32,42-00.51N,142-46.02E,118,9.134,
694,2022/12/15,11:33,42-00.34N,142-46.45E,117,8.992,
695,2022/12/15,11:34,42-00.15N,142-46.89E,122,8.901,
696,2022/12/15,11:35,41-59.96N,142-47.30E,121,8.86,
697,2022/12/15,11:36,41-59.77N,142-47.74E,120,8.824,
698,2022/12/15,11:37,41-59.58N,142-48.16E,121,8.799,
699,2022/12/15,11:38,41-59.38N,142-48.59E,120,8.775,
700,2022/12/15,11:39,41-59.19N,142-49.05E,118,8.726,
701,2022/12/15,11:40,41-59.02N,142-49.48E,118,8.712,
702,2022/12/15,11:41,41-58.84N,142-49.91E,119,8.709,
703,2022/12/15,11:42,41-58.66N,142-50.35E,118,8.7,
704,2022/12/15,11:43,41-58.47N,142-50.79E,121,8.674,
705,2022/12/15,11:44,41-58.26N,142-51.24E,122,8.656,
706,2022/12/15,11:45,41-58.08N,142-51.66E,119,8.535,
707,2022/12/15,11:46,41-57.90N,142-52.10E,119,8.513,
708,2022/12/15,11:47,41-57.71N,142-52.54E,120,8.585,
709,2022/12/15,11:48,41-57.52N,142-52.95E,120,8.623,
710,2022/12/15,11:49,41-57.34N,142-53.39E,118,8.461,
711,2022/12/15,11:50,41-57.16N,142-53.81E,121,8.416,
712,2022/12/15,11:51,41-56.96N,142-54.25E,121,8.429,
713,2022/12/15,11:52,41-56.77N,142-54.67E,118,8.427,
714,2022/12/15,11:53,41-56.60N,142-55.09E,119,8.419,
715,2022/12/15,11:54,41-56.41N,142-55.53E,121,8.435,
716,2022/12/15,11:55,41-56.21N,142-55.95E,122,8.447,
717,2022/12/15,11:56,41-56.03N,142-56.39E,119,8.465,
718,2022/12/15,11:57,41-55.87N,142-56.83E,112,8.483,
719,2022/12/15,11:58,41-55.75N,142-57.32E,105,8.508,
720,2022/12/15,11:59,41-55.68N,142-57.85E,101,8.397,
721,2022/12/15,12:00,41-55.62N,142-58.28E,98,8.341,
722,2022/12/15,12:01,41-55.56N,142-58.77E,101,8.354,
723,2022/12/15,12:02,41-55.50N,142-59.24E,97,8.391,
724,2022/12/15,12:03,41-55.44N,142-59.73E,100,8.368,
725,2022/12/15,12:04,41-55.36N,143-00.22E,101,8.31,
726,2022/12/15,12:05,41-55.29N,143-00.69E,99,8.246,
727,2022/12/15,12:06,41-55.23N,143-01.18E,99,8.221,
728,2022/12/15,12:07,41-55.17N,143-01.66E,100,8.19,
729,2022/12/15,12:08,41-55.10N,143-02.15E,101,8.213,
730,2022/12/15,12:09,41-55.02N,143-02.62E,99,8.219,
731,2022/12/15,12:10,41-54.95N,143-03.12E,101,8.205,
732,2022/12/15,12:11,41-54.89N,143-03.59E,98,8.207,
733,2022/12/15,12:12,41-54.81N,143-04.09E,103,8.248,
734,2022/12/15,12:13,41-54.75N,143-04.57E,98,8.3,
735,2022/12/15,12:14,41-54.68N,143-05.05E,101,8.424,
736,2022/12/15,12:15,41-54.60N,143-05.52E,102,8.444,
737,2022/12/15,12:16,41-54.54N,143-06.01E,102,8.454,
738,2022/12/15,12:17,41-54.47N,143-06.47E,99,8.447,
739,2022/12/15,12:18,41-54.41N,143-06.94E,98,8.431,
740,2022/12/15,12:19,41-54.34N,143-07.43E,103,8.479,
741,2022/12/15,12:20,41-54.26N,143-07.89E,102,8.471,
742,2022/12/15,12:21,41-54.19N,143-08.37E,99,8.495,
743,2022/12/15,12:22,41-54.13N,143-08.85E,99,8.586,
744,2022/12/15,12:23,41-54.06N,143-09.33E,100,8.429,
745,2022/12/15,12:24,41-53.99N,143-09.83E,102,8.236,
746,2022/12/15,12:25,41-53.93N,143-10.30E,98,8.112,
747,2022/12/15,12:26,41-53.86N,143-10.80E,101,8.066,
748,2022/12/15,12:27,41-53.79N,143-11.26E,100,8.027,
749,2022/12/15,12:28,41-53.73N,143-11.73E,100,8.02,
750,2022/12/15,12:29,41-53.67N,143-12.22E,99,8.071,
751,2022/12/15,12:30,41-53.61N,143-12.68E,100,8.07,
752,2022/12/15,12:31,41-53.56N,143-13.15E,96,8.031,
753,2022/12/15,12:32,41-53.48N,143-13.63E,102,7.997,
754,2022/12/15,12:33,41-53.43N,143-14.08E,98,7.971,
755,2022/12/15,12:34,41-53.38N,143-14.56E,98,7.952,
756,2022/12/15,12:35,41-53.31N,143-15.02E,101,7.945,
757,2022/12/15,12:36,41-53.25N,143-15.48E,101,7.943,
758,2022/12/15,12:37,41-53.22N,143-15.94E,92,7.922,
759,2022/12/15,12:38,41-53.27N,143-16.37E,70,7.875,
760,2022/12/15,12:39,41-53.42N,143-16.73E,56,7.832,
761,2022/12/15,12:40,41-53.62N,143-17.02E,45,7.767,
762,2022/12/15,12:41,41-53.82N,143-17.28E,46,7.727,
763,2022/12/15,12:42,41-54.03N,143-17.56E,44,7.514,
764,2022/12/15,12:43,41-54.22N,143-17.82E,43,7.485,
765,2022/12/15,12:44,41-54.46N,143-18.05E,34,7.697,
766,2022/12/15,12:45,41-54.70N,143-18.27E,34,7.751,
767,2022/12/15,12:46,41-54.95N,143-18.49E,33,7.634,
768,2022/12/15,12:47,41-55.22N,143-18.71E,29,7.571,
769,2022/12/15,12:48,41-55.50N,143-18.93E,28,7.548,
770,2022/12/15,12:49,41-55.82N,143-19.14E,25,7.582,
771,2022/12/15,12:50,41-56.10N,143-19.34E,29,8.18,
772,2022/12/15,12:51,41-56.35N,143-19.53E,28,8.383,
773,2022/12/15,12:52,41-56.63N,143-19.74E,29,8.44,
774,2022/12/15,12:53,41-56.94N,143-19.98E,29,8.462,
775,2022/12/15,12:54,41-57.22N,143-20.17E,25,8.48,
776,2022/12/15,12:55,41-57.52N,143-20.35E,22,8.503,
777,2022/12/15,12:56,41-57.83N,143-20.52E,23,8.535,
778,2022/12/15,12:57,41-58.14N,143-20.71E,25,8.596,
779,2022/12/15,12:58,41-58.42N,143-20.90E,26,8.653,
780,2022/12/15,12:59,41-58.71N,143-21.10E,26,8.727,
781,2022/12/15,13:00,41-59.00N,143-21.31E,28,8.751,
782,2022/12/15,13:01,41-59.28N,143-21.51E,29,8.78,
783,2022/12/15,13:02,41-59.56N,143-21.73E,29,8.797,
784,2022/12/15,13:03,41-59.85N,143-21.94E,29,8.801,
785,2022/12/15,13:04,42-00.13N,143-22.15E,29,8.787,
786,2022/12/15,13:05,42-00.41N,143-22.36E,29,8.734,
787,2022/12/15,13:06,42-00.69N,143-22.57E,29,8.689,
788,2022/12/15,13:07,42-00.99N,143-22.80E,29,8.659,
789,2022/12/15,13:08,42-01.28N,143-23.02E,29,8.633,
790,2022/12/15,13:09,42-01.56N,143-23.23E,29,8.565,
791,2022/12/15,13:10,42-01.86N,143-23.45E,27,8.557,
792,2022/12/15,13:11,42-02.15N,143-23.63E,23,8.569,
793,2022/12/15,13:12,42-02.46N,143-23.80E,22,8.586,
794,2022/12/15,13:13,42-02.77N,143-23.97E,22,8.596,
795,2022/12/15,13:14,42-03.08N,143-24.14E,21,8.59,
796,2022/12/15,13:15,42-03.39N,143-24.30E,21,8.581,
797,2022/12/15,13:16,42-03.70N,143-24.47E,21,8.585,
798,2022/12/15,13:17,42-04.00N,143-24.63E,21,8.599,
799,2022/12/15,13:18,42-04.31N,143-24.78E,20,8.623,
800,2022/12/15,13:19,42-04.61N,143-24.92E,18,8.667,
801,2022/12/15,13:20,42-04.91N,143-25.06E,18,8.696,
802,2022/12/15,13:21,42-05.21N,143-25.20E,18,8.722,
803,2022/12/15,13:22,42-05.52N,143-25.35E,19,8.735,
804,2022/12/15,13:23,42-05.83N,143-25.49E,18,8.768,
805,2022/12/15,13:24,42-06.13N,143-25.63E,18,8.799,
806,2022/12/15,13:25,42-06.42N,143-25.77E,19,8.819,
807,2022/12/15,13:26,42-06.73N,143-25.91E,19,8.81,
808,2022/12/15,13:27,42-07.03N,143-26.05E,19,8.771,
809,2022/12/15,13:28,42-07.33N,143-26.19E,18,8.737,
810,2022/12/15,13:29,42-07.64N,143-26.33E,18,8.699,
811,2022/12/15,13:30,42-07.94N,143-26.47E,18,8.674,
812,2022/12/15,13:31,42-08.25N,143-26.61E,18,8.68,
813,2022/12/15,13:32,42-08.57N,143-26.75E,18,8.738,
814,2022/12/15,13:33,42-08.87N,143-26.89E,18,8.776,
815,2022/12/15,13:34,42-09.18N,143-27.02E,18,8.808,
816,2022/12/15,13:35,42-09.49N,143-27.16E,18,8.807,
817,2022/12/15,13:36,42-09.80N,143-27.30E,18,8.778,
818,2022/12/15,13:37,42-10.12N,143-27.44E,18,8.759,
819,2022/12/15,13:38,42-10.43N,143-27.57E,17,8.77,
820,2022/12/15,13:39,42-10.75N,143-27.71E,18,8.745,
821,2022/12/15,13:40,42-11.05N,143-27.85E,18,8.735,
822,2022/12/15,13:41,42-11.37N,143-27.99E,17,8.746,
823,2022/12/15,13:42,42-11.68N,143-28.13E,18,8.748,
824,2022/12/15,13:43,42-11.97N,143-28.26E,18,8.76,
825,2022/12/15,13:44,42-12.27N,143-28.40E,18,8.768,
826,2022/12/15,13:45,42-12.56N,143-28.53E,18,8.776,
827,2022/12/15,13:46,42-12.86N,143-28.67E,19,8.782,
828,2022/12/15,13:47,42-13.16N,143-28.81E,19,8.79,
829,2022/12/15,13:48,42-13.45N,143-28.94E,19,8.818,
830,2022/12/15,13:49,42-13.72N,143-29.07E,19,8.835,
831,2022/12/15,13:50,42-14.00N,143-29.21E,19,8.845,
832,2022/12/15,13:51,42-14.28N,143-29.34E,19,8.857,
833,2022/12/15,13:52,42-14.56N,143-29.47E,19,8.86,
834,2022/12/15,13:53,42-14.83N,143-29.60E,19,8.852,
835,2022/12/15,13:54,42-15.12N,143-29.74E,19,8.84,
836,2022/12/15,13:55,42-15.38N,143-29.87E,19,8.83,
837,2022/12/15,13:56,42-15.65N,143-30.00E,19,8.816,
838,2022/12/15,13:57,42-15.93N,143-30.13E,19,8.776,
839,2022/12/15,13:58,42-16.19N,143-30.26E,20,8.736,
840,2022/12/15,13:59,42-16.47N,143-30.40E,20,8.687,
841,2022/12/15,14:00,42-16.73N,143-30.53E,19,8.655,
842,2022/12/15,14:01,42-17.00N,143-30.66E,20,8.611,
843,2022/12/15,14:02,42-17.27N,143-30.79E,20,8.664,
844,2022/12/15,14:03,42-17.53N,143-30.92E,18,8.699,
845,2022/12/15,14:04,42-17.80N,143-31.03E,18,8.69,
846,2022/12/15,14:05,42-18.07N,143-31.15E,18,8.72,
847,2022/12/15,14:06,42-18.34N,143-31.27E,18,8.748,
848,2022/12/15,14:07,42-18.61N,143-31.39E,18,8.783,
849,2022/12/15,14:08,42-18.87N,143-31.51E,18,8.82,
850,2022/12/15,14:09,42-19.13N,143-31.63E,18,8.841,
851,2022/12/15,14:10,42-19.41N,143-31.75E,17,8.863,
852,2022/12/15,14:11,42-19.67N,143-31.86E,17,8.872,
853,2022/12/15,14:12,42-19.94N,143-31.98E,18,8.884,
854,2022/12/15,14:13,42-20.21N,143-32.10E,17,8.889,
855,2022/12/15,14:14,42-20.47N,143-32.21E,18,8.911,
856,2022/12/15,14:15,42-20.74N,143-32.33E,19,8.925,
857,2022/12/15,14:16,42-21.01N,143-32.45E,17,8.943,
858,2022/12/15,14:17,42-21.28N,143-32.57E,18,8.96,
859,2022/12/15,14:18,42-21.54N,143-32.69E,18,8.968,
860,2022/12/15,14:19,42-21.81N,143-32.81E,18,8.974,
861,2022/12/15,14:20,42-22.08N,143-32.93E,18,8.976,
862,2022/12/15,14:21,42-22.34N,143-33.05E,18,8.982,
863,2022/12/15,14:22,42-22.63N,143-33.18E,18,8.993,
864,2022/12/15,14:23,42-22.88N,143-33.29E,16,9.012,
865,2022/12/15,14:24,42-23.15N,143-33.41E,18,9.028,
866,2022/12/15,14:25,42-23.42N,143-33.53E,18,9.014,
867,2022/12/15,14:26,42-23.67N,143-33.65E,18,8.868,
868,2022/12/15,14:27,42-23.94N,143-33.77E,19,8.98,
869,2022/12/15,14:28,42-24.21N,143-33.90E,19,9.035,
870,2022/12/15,14:29,42-24.47N,143-34.01E,17,8.444,
871,2022/12/15,14:30,42-24.74N,143-34.14E,18,7.996,
872,2022/12/15,14:31,42-25.01N,143-34.26E,19,7.98,
873,2022/12/15,14:32,42-25.27N,143-34.39E,18,7.934,
874,2022/12/15,14:33,42-25.53N,143-34.51E,18,7.984,
875,2022/12/15,14:34,42-25.79N,143-34.63E,19,8.216,
876,2022/12/15,14:35,42-26.06N,143-34.75E,18,8.384,
877,2022/12/15,14:36,42-26.31N,143-34.87E,19,8.412,
878,2022/12/15,14:37,42-26.59N,143-35.01E,20,8.262,
879,2022/12/15,14:38,42-26.83N,143-35.13E,20,8.164,
880,2022/12/15,14:39,42-27.09N,143-35.26E,19,8.165,
881,2022/12/15,14:40,42-27.36N,143-35.38E,19,8.217,
882,2022/12/15,14:41,42-27.62N,143-35.51E,19,8.288,
883,2022/12/15,14:42,42-27.88N,143-35.64E,19,8.281,
884,2022/12/15,14:43,42-28.15N,143-35.76E,19,8.285,
885,2022/12/15,14:44,42-28.40N,143-35.89E,19,8.293,
886,2022/12/15,14:45,42-28.69N,143-36.03E,19,8.203,
887,2022/12/15,14:46,42-28.94N,143-36.14E,19,8.076,
888,2022/12/15,14:47,42-29.22N,143-36.28E,19,7.97,
889,2022/12/15,14:48,42-29.47N,143-36.40E,19,8.011,
890,2022/12/15,14:49,42-29.74N,143-36.52E,18,8.355,
891,2022/12/15,14:50,42-30.01N,143-36.65E,18,8.602,
892,2022/12/15,14:51,42-30.27N,143-36.76E,18,8.735,
893,2022/12/15,14:52,42-30.54N,143-36.88E,17,8.791,
894,2022/12/15,14:53,42-30.81N,143-37.00E,18,8.624,
895,2022/12/15,14:54,42-31.07N,143-37.12E,18,8.385,
896,2022/12/15,14:55,42-31.34N,143-37.24E,18,8.174,
897,2022/12/15,14:56,42-31.61N,143-37.38E,27,8.075,
898,2022/12/15,14:57,42-31.85N,143-37.60E,36,8.027,
899,2022/12/15,14:58,42-32.05N,143-37.92E,55,8.044,
900,2022/12/15,14:59,42-32.22N,143-38.28E,58,8.015,
901,2022/12/15,15:00,42-32.35N,143-38.56E,57,7.986,
902,2022/12/15,15:01,42-32.50N,143-38.88E,57,7.947,
903,2022/12/15,15:02,42-32.65N,143-39.22E,60,7.871,
904,2022/12/15,15:03,42-32.79N,143-39.55E,60,7.827,
905,2022/12/15,15:04,42-32.93N,143-39.89E,60,7.822,
906,2022/12/15,15:05,42-33.08N,143-40.25E,62,7.794,
907,2022/12/15,15:06,42-33.17N,143-40.62E,76,7.776,
908,2022/12/15,15:07,42-33.20N,143-41.01E,89,7.789,
909,2022/12/15,15:08,42-33.14N,143-41.40E,106,7.825,
910,2022/12/15,15:09,42-33.00N,143-41.74E,126,8.042,
911,2022/12/15,15:10,42-32.78N,143-41.98E,146,8.194,
912,2022/12/15,15:11,42-32.53N,143-42.12E,161,8.447,
913,2022/12/15,15:12,42-32.26N,143-42.18E,176,8.602,
914,2022/12/15,15:13,42-32.00N,143-42.14E,189,8.624,
915,2022/12/15,15:14,42-31.75N,143-42.03E,201,8.641,
916,2022/12/15,15:15,42-31.52N,143-41.87E,211,8.61,
917,2022/12/15,15:16,42-31.32N,143-41.67E,217,8.591,
918,2022/12/15,15:17,42-31.14N,143-41.44E,226,8.552,
919,2022/12/15,15:18,42-31.02N,143-41.15E,248,8.529,
920,2022/12/15,15:19,42-30.99N,143-40.84E,266,8.516,
921,2022/12/15,15:20,42-31.02N,143-40.51E,282,8.515,
922,2022/12/15,15:21,42-31.11N,143-40.20E,292,8.547,
923,2022/12/15,15:22,42-31.21N,143-39.88E,292,8.605,
924,2022/12/15,15:23,42-31.30N,143-39.56E,287,8.685,
925,2022/12/15,15:24,42-31.36N,143-39.22E,286,8.728,
926,2022/12/15,15:25,42-31.49N,143-38.90E,301,8.783,
927,2022/12/15,15:26,42-31.66N,143-38.63E,314,8.763,
928,2022/12/15,15:27,42-31.89N,143-38.40E,326,8.515,
929,2022/12/15,15:28,42-32.14N,143-38.21E,331,8.32,
930,2022/12/15,15:29,42-32.41N,143-38.09E,347,8.09,
931,2022/12/15,15:30,42-32.72N,143-38.10E,5,7.955,
932,2022/12/15,15:31,42-33.02N,143-38.19E,17,7.954,
933,2022/12/15,15:32,42-33.32N,143-38.37E,28,8.019,
934,2022/12/15,15:33,42-33.59N,143-38.63E,36,8.006,
935,2022/12/15,15:34,42-33.85N,143-38.92E,42,7.931,
936,2022/12/15,15:35,42-34.06N,143-39.27E,51,7.897,
937,2022/12/15,15:36,42-34.27N,143-39.63E,51,7.917,
938,2022/12/15,15:37,42-34.49N,143-40.01E,52,7.998,
939,2022/12/15,15:38,42-34.69N,143-40.36E,52,8.112,
940,2022/12/15,15:39,42-34.90N,143-40.74E,53,8.229,
941,2022/12/15,15:40,42-35.11N,143-41.12E,54,8.282,
942,2022/12/15,15:41,42-35.31N,143-41.50E,53,8.345,
943,2022/12/15,15:42,42-35.50N,143-41.86E,54,8.337,
944,2022/12/15,15:43,42-35.71N,143-42.26E,54,8.408,
945,2022/12/15,15:44,42-35.90N,143-42.62E,54,8.462,
946,2022/12/15,15:45,42-36.11N,143-43.01E,54,8.509,
947,2022/12/15,15:46,42-36.31N,143-43.40E,54,8.498,
948,2022/12/15,15:47,42-36.51N,143-43.77E,55,8.38,
949,2022/12/15,15:48,42-36.72N,143-44.17E,54,7.808,
950,2022/12/15,15:49,42-36.94N,143-44.59E,54,7.629,
951,2022/12/15,15:50,42-37.16N,143-45.01E,54,7.684,
952,2022/12/15,15:51,42-37.36N,143-45.36E,51,7.752,
953,2022/12/15,15:52,42-37.60N,143-45.75E,50,8.36,
954,2022/12/15,15:53,42-37.83N,143-46.12E,49,8.698,
955,2022/12/15,15:54,42-38.07N,143-46.47E,46,8.79,
956,2022/12/15,15:55,42-38.32N,143-46.83E,46,8.891,
957,2022/12/15,15:56,42-38.57N,143-47.18E,46,8.918,
958,2022/12/15,15:57,42-38.78N,143-47.48E,46,8.735,
959,2022/12/15,15:58,42-39.04N,143-47.84E,46,7.61,
960,2022/12/15,15:59,42-39.31N,143-48.24E,46,6.903,
961,2022/12/15,16:00,42-39.54N,143-48.57E,46,6.676,
962,2022/12/15,16:01,42-39.79N,143-48.91E,46,6.596,
963,2022/12/15,16:02,42-40.04N,143-49.27E,46,6.65,
964,2022/12/15,16:03,42-40.29N,143-49.63E,46,6.701,
965,2022/12/15,16:04,42-40.54N,143-49.99E,46,6.804,
966,2022/12/15,16:05,42-40.80N,143-50.36E,46,7.004,
967,2022/12/15,16:06,42-41.05N,143-50.71E,45,7.228,